TAM3912 SBSP-SBRJ

Flight info

Callsign TAM3912
Flight time 0h 38m
Altitude 25000
Route NIBRU UZ171 KEVUN
Aircraft A320/M-SDE3FGHIRWY/LB1

Departure

Time 2026-05-06 19:12
Airport Congonhas–Deputado Freitas Nobre Airport (SBSP)

Arrival

Time 2026-05-06 19:50
Airport Santos Dumont Airport (SBRJ)
Time Latitude Longitude Altitude Speed Heading
2026-05-06 19:02 -23.62511 -46.65966 2601 ft 0 kts 237°
2026-05-06 19:06 -23.62504 -46.65955 2600 ft 4 kts 238°
2026-05-06 19:06 -23.62493 -46.65931 2601 ft 4 kts 275°
2026-05-06 19:07 -23.62503 -46.65915 2601 ft 4 kts 327°
2026-05-06 19:07 -23.62511 -46.65910 2601 ft 0 kts 327°
2026-05-06 19:09 -23.62509 -46.65911 2601 ft 2 kts 331°
2026-05-06 19:09 -23.62461 -46.65928 2601 ft 13 kts 342°
2026-05-06 19:09 -23.62364 -46.65965 2600 ft 16 kts 334°
2026-05-06 19:10 -23.62266 -46.66031 2600 ft 17 kts 330°
2026-05-06 19:10 -23.62155 -46.66098 2599 ft 20 kts 327°
2026-05-06 19:10 -23.62040 -46.66113 2595 ft 16 kts 50°
2026-05-06 19:10 -23.62040 -46.66083 2596 ft 0 kts 145°
2026-05-06 19:11 -23.62042 -46.66081 2596 ft 2 kts 145°
2026-05-06 19:11 -23.62201 -46.65969 2599 ft 67 kts 147°
2026-05-06 19:11 -23.62825 -46.65534 2608 ft 141 kts 147°
2026-05-06 19:12 -23.63759 -46.64883 3003 ft 165 kts 144°
2026-05-06 19:12 -23.64715 -46.64160 3563 ft 170 kts 138°
2026-05-06 19:12 -23.65432 -46.63074 3900 ft 188 kts 117°
2026-05-06 19:12 -23.66074 -46.61730 4191 ft 212 kts 116°
2026-05-06 19:13 -23.66785 -46.60217 4527 ft 236 kts 116°
2026-05-06 19:13 -23.67575 -46.58546 4914 ft 259 kts 116°
2026-05-06 19:13 -23.68429 -46.56760 5519 ft 269 kts 115°
2026-05-06 19:13 -23.69310 -46.54939 6301 ft 274 kts 116°
2026-05-06 19:14 -23.70204 -46.53105 7003 ft 280 kts 116°
2026-05-06 19:14 -23.71120 -46.51214 7753 ft 283 kts 114°
2026-05-06 19:14 -23.71725 -46.49165 8499 ft 285 kts 97°
2026-05-06 19:14 -23.71781 -46.47001 9253 ft 286 kts 81°
2026-05-06 19:15 -23.71479 -46.44838 10013 ft 290 kts 78°
2026-05-06 19:15 -23.71159 -46.42630 10524 ft 302 kts 79°
2026-05-06 19:15 -23.70817 -46.40280 10755 ft 322 kts 79°
2026-05-06 19:15 -23.70464 -46.37839 11286 ft 329 kts 80°
2026-05-06 19:16 -23.70107 -46.35356 11900 ft 333 kts 81°
2026-05-06 19:16 -23.69750 -46.32842 12543 ft 336 kts 82°
2026-05-06 19:16 -23.69393 -46.30319 13228 ft 338 kts 82°
2026-05-06 19:16 -23.69031 -46.27769 13829 ft 342 kts 82°
2026-05-06 19:17 -23.68666 -46.25218 14378 ft 345 kts 82°
2026-05-06 19:17 -23.68294 -46.22610 14894 ft 349 kts 82°
2026-05-06 19:17 -23.67918 -46.19975 15410 ft 353 kts 83°
2026-05-06 19:17 -23.67537 -46.17319 15948 ft 356 kts 83°
2026-05-06 19:18 -23.67147 -46.14637 16479 ft 360 kts 83°
2026-05-06 19:18 -23.66753 -46.11919 16992 ft 364 kts 83°
2026-05-06 19:18 -23.66360 -46.09178 17520 ft 368 kts 83°
2026-05-06 19:18 -23.65965 -46.06407 18051 ft 372 kts 83°
2026-05-06 19:19 -23.65564 -46.03605 18549 ft 375 kts 83°
2026-05-06 19:19 -23.65160 -46.00775 19000 ft 379 kts 83°
2026-05-06 19:19 -23.64758 -45.97956 19461 ft 383 kts 83°
2026-05-06 19:19 -23.64343 -45.95076 19947 ft 386 kts 83°
2026-05-06 19:20 -23.63922 -45.92170 20435 ft 390 kts 83°
2026-05-06 19:20 -23.63497 -45.89235 20923 ft 393 kts 83°
2026-05-06 19:20 -23.63065 -45.86271 21405 ft 397 kts 83°
2026-05-06 19:20 -23.62630 -45.83286 21887 ft 401 kts 83°
2026-05-06 19:21 -23.62191 -45.80266 22364 ft 404 kts 83°
2026-05-06 19:21 -23.61750 -45.77228 22836 ft 408 kts 83°
2026-05-06 19:21 -23.61306 -45.74158 23327 ft 411 kts 83°
2026-05-06 19:21 -23.60856 -45.71066 23796 ft 415 kts 83°
2026-05-06 19:22 -23.60400 -45.67945 24192 ft 418 kts 83°
2026-05-06 19:22 -23.59940 -45.64803 24584 ft 421 kts 83°
2026-05-06 19:22 -23.59476 -45.61633 24960 ft 425 kts 83°
2026-05-06 19:22 -23.59009 -45.58443 25099 ft 426 kts 83°
2026-05-06 19:23 -23.58544 -45.55312 25135 ft 411 kts 83°
2026-05-06 19:23 -23.58090 -45.52265 25137 ft 404 kts 83°
2026-05-06 19:23 -23.57643 -45.49251 25139 ft 403 kts 83°
2026-05-06 19:23 -23.57187 -45.46239 25139 ft 402 kts 82°
2026-05-06 19:24 -23.56531 -45.43271 25143 ft 404 kts 73°
2026-05-06 19:24 -23.55627 -45.40366 25141 ft 404 kts 73°
2026-05-06 19:24 -23.54725 -45.37466 25147 ft 404 kts 73°
2026-05-06 19:24 -23.53833 -45.34574 25149 ft 415 kts 73°
2026-05-06 19:25 -23.52914 -45.31549 25142 ft 423 kts 73°
2026-05-06 19:25 -23.51988 -45.28541 25136 ft 411 kts 73°
2026-05-06 19:25 -23.51068 -45.25620 25139 ft 405 kts 73°
2026-05-06 19:25 -23.50146 -45.22727 25141 ft 404 kts 72°
2026-05-06 19:26 -23.49219 -45.19831 25138 ft 403 kts 72°
2026-05-06 19:26 -23.48295 -45.16944 25141 ft 403 kts 72°
2026-05-06 19:26 -23.47374 -45.14056 25141 ft 403 kts 72°
2026-05-06 19:26 -23.46458 -45.11169 25141 ft 403 kts 73°
2026-05-06 19:27 -23.45545 -45.08283 25141 ft 403 kts 73°
2026-05-06 19:27 -23.44632 -45.05396 25144 ft 403 kts 73°
2026-05-06 19:27 -23.43730 -45.02542 25144 ft 403 kts 73°
2026-05-06 19:27 -23.42816 -44.99660 25145 ft 403 kts 72°
2026-05-06 19:28 -23.41897 -44.96776 25146 ft 403 kts 72°
2026-05-06 19:28 -23.40977 -44.93889 25147 ft 403 kts 72°
2026-05-06 19:28 -23.40058 -44.91006 25145 ft 403 kts 72°
2026-05-06 19:28 -23.39139 -44.88124 25152 ft 403 kts 72°
2026-05-06 19:29 -23.38219 -44.85238 25152 ft 403 kts 72°
2026-05-06 19:29 -23.37298 -44.82352 25151 ft 403 kts 72°
2026-05-06 19:29 -23.36377 -44.79470 25157 ft 403 kts 72°
2026-05-06 19:29 -23.35453 -44.76582 25151 ft 403 kts 72°
2026-05-06 19:30 -23.34529 -44.73699 25152 ft 403 kts 72°
2026-05-06 19:30 -23.33617 -44.70852 25153 ft 403 kts 72°
2026-05-06 19:30 -23.32704 -44.68001 25119 ft 394 kts 72°
2026-05-06 19:30 -23.31809 -44.65219 24919 ft 386 kts 72°
2026-05-06 19:31 -23.30926 -44.62478 24603 ft 382 kts 72°
2026-05-06 19:31 -23.30053 -44.59766 24278 ft 379 kts 72°
2026-05-06 19:31 -23.28333 -44.54405 23568 ft 373 kts 72°
2026-05-06 19:32 -23.27485 -44.51749 23163 ft 370 kts 72°
2026-05-06 19:32 -23.26649 -44.49119 22769 ft 367 kts 72°
2026-05-06 19:32 -23.25816 -44.46501 22383 ft 364 kts 72°
2026-05-06 19:32 -23.24985 -44.43905 21996 ft 362 kts 72°
2026-05-06 19:33 -23.24160 -44.41334 21624 ft 359 kts 72°
2026-05-06 19:33 -23.23338 -44.38776 21262 ft 357 kts 72°
2026-05-06 19:33 -23.22521 -44.36236 20897 ft 354 kts 72°
2026-05-06 19:33 -23.21712 -44.33718 20534 ft 352 kts 72°
2026-05-06 19:34 -23.20910 -44.31213 20180 ft 349 kts 72°
2026-05-06 19:34 -23.20110 -44.28726 19827 ft 347 kts 72°
2026-05-06 19:34 -23.19314 -44.26259 19470 ft 345 kts 72°
2026-05-06 19:34 -23.18524 -44.23807 19138 ft 343 kts 72°
2026-05-06 19:35 -23.17739 -44.21371 18806 ft 341 kts 72°
2026-05-06 19:35 -23.16967 -44.18977 18493 ft 339 kts 72°
2026-05-06 19:35 -23.16190 -44.16571 18134 ft 337 kts 72°
2026-05-06 19:35 -23.15414 -44.14175 17768 ft 335 kts 72°
2026-05-06 19:36 -23.14645 -44.11798 17404 ft 332 kts 72°
2026-05-06 19:36 -23.13883 -44.09436 17043 ft 330 kts 72°
2026-05-06 19:36 -23.13124 -44.07087 16679 ft 328 kts 72°
2026-05-06 19:36 -23.12370 -44.04755 16338 ft 326 kts 72°
2026-05-06 19:37 -23.11618 -44.02432 15985 ft 324 kts 72°
2026-05-06 19:37 -23.10873 -44.00126 15626 ft 323 kts 71°
2026-05-06 19:37 -23.10130 -43.97833 15293 ft 321 kts 71°
2026-05-06 19:37 -23.09638 -43.96318 15078 ft 319 kts 71°
2026-05-06 19:38 -23.08652 -43.93284 14642 ft 317 kts 71°
2026-05-06 19:38 -23.07930 -43.91057 14324 ft 315 kts 71°
2026-05-06 19:38 -23.07203 -43.88817 14011 ft 313 kts 70°
2026-05-06 19:38 -23.06482 -43.86591 13664 ft 311 kts 70°
2026-05-06 19:39 -23.05763 -43.84382 13323 ft 309 kts 70°
2026-05-06 19:39 -23.05051 -43.82195 12988 ft 307 kts 70°
2026-05-06 19:39 -23.04343 -43.80018 12647 ft 305 kts 70°
2026-05-06 19:39 -23.03642 -43.77858 12326 ft 302 kts 70°
2026-05-06 19:40 -23.02946 -43.75718 11994 ft 300 kts 70°
2026-05-06 19:40 -23.02251 -43.73588 11674 ft 298 kts 70°
2026-05-06 19:40 -23.01561 -43.71479 11380 ft 295 kts 70°
2026-05-06 19:40 -23.00877 -43.69388 11050 ft 293 kts 70°
2026-05-06 19:41 -23.00196 -43.67306 10745 ft 291 kts 70°
2026-05-06 19:41 -22.99520 -43.65239 10451 ft 289 kts 70°
2026-05-06 19:41 -22.98849 -43.63188 10136 ft 287 kts 70°
2026-05-06 19:41 -22.98189 -43.61166 9805 ft 286 kts 70°
2026-05-06 19:42 -22.97525 -43.59139 9498 ft 284 kts 70°
2026-05-06 19:42 -22.96862 -43.57121 9157 ft 283 kts 70°
2026-05-06 19:42 -22.96203 -43.55113 8806 ft 282 kts 70°
2026-05-06 19:42 -22.95549 -43.53117 8508 ft 280 kts 70°
2026-05-06 19:43 -22.94896 -43.51136 8194 ft 280 kts 68°
2026-05-06 19:43 -22.94097 -43.49193 7730 ft 282 kts 65°
2026-05-06 19:43 -22.93289 -43.47285 7371 ft 270 kts 65°
2026-05-06 19:43 -22.92547 -43.45531 7327 ft 248 kts 65°
2026-05-06 19:44 -22.91859 -43.43907 7320 ft 226 kts 65°
2026-05-06 19:44 -22.91235 -43.42437 7326 ft 203 kts 64°
2026-05-06 19:44 -22.90652 -43.41065 6908 ft 201 kts 64°
2026-05-06 19:44 -22.90059 -43.39667 6426 ft 201 kts 64°
2026-05-06 19:45 -22.89470 -43.38280 5926 ft 201 kts 65°
2026-05-06 19:45 -22.89083 -43.37366 5604 ft 202 kts 65°
2026-05-06 19:45 -22.88497 -43.35982 5116 ft 202 kts 65°
2026-05-06 19:45 -22.87978 -43.34571 4627 ft 202 kts 70°
2026-05-06 19:46 -22.87517 -43.33137 4125 ft 201 kts 71°
2026-05-06 19:46 -22.86911 -43.31250 3486 ft 198 kts 70°
2026-05-06 19:46 -22.86601 -43.30310 3183 ft 194 kts 71°
2026-05-06 19:46 -22.86364 -43.28902 3001 ft 188 kts 87°
2026-05-06 19:47 -22.86449 -43.27024 2573 ft 190 kts 94°
2026-05-06 19:47 -22.86538 -43.26058 2351 ft 191 kts 95°
2026-05-06 19:47 -22.86699 -43.24628 2044 ft 192 kts 96°
2026-05-06 19:47 -22.86863 -43.23220 1732 ft 188 kts 96°
2026-05-06 19:48 -22.87019 -43.21872 1543 ft 171 kts 96°
2026-05-06 19:48 -22.87114 -43.20676 1364 ft 151 kts 91°
2026-05-06 19:48 -22.87147 -43.19575 1069 ft 140 kts 94°
2026-05-06 19:48 -22.87234 -43.18528 849 ft 141 kts 103°
2026-05-06 19:49 -22.87503 -43.17520 652 ft 138 kts 119°
2026-05-06 19:49 -22.88096 -43.16749 497 ft 135 kts 148°
2026-05-06 19:49 -22.88963 -43.16403 345 ft 134 kts 176°
2026-05-06 19:49 -22.89889 -43.16355 174 ft 134 kts 177°
2026-05-06 19:50 -22.90802 -43.16301 30 ft 119 kts 176°
2026-05-06 19:50 -22.91276 -43.16267 20 ft 30 kts 176°
2026-05-06 19:50 -22.91345 -43.16347 20 ft 17 kts 268°
2026-05-06 19:50 -22.91349 -43.16467 22 ft 15 kts 266°
2026-05-06 19:51 -22.91270 -43.16509 22 ft 15 kts 356°
2026-05-06 19:51 -22.91162 -43.16517 24 ft 17 kts 356°
2026-05-06 19:51 -22.91041 -43.16534 22 ft 19 kts 353°
2026-05-06 19:51 -22.90924 -43.16546 22 ft 9 kts 342°
2026-05-06 19:52 -22.90916 -43.16604 22 ft 5 kts 266°
2026-05-06 19:52 -22.90917 -43.16618 22 ft 0 kts 266°